This demonstration page uses our WeatherBlox Daily Observations layout. Learn more.

Left ArrowRight Arrow

Hourly Observations for January 14, 2022

Temp ( °F °C ) Dew Point ( °F °C ) Humidity (%) Winds ( mph kmh ) Pressure ( in mb ) Visibility ( mi km ) Precip ( " mm )
12:52 am 00:52 Cloudy 32 0 26 -3.3 79 79 E 5 7 30.06 1018 10 16 0.00 0.00
1:52 am 01:52 Cloudy 30 -1.1 25 -3.9 82 82 E 6 9 30.05 1018 10 16 0.00 0.00
2:29 am 02:29 Cloudy 30 -1.1 26 -3.3 85 85 ESE 7 11 30.10 1019 7 11 0.00 0.00
2:44 am 02:44 Cloudy 30 -1.1 26 -3.3 85 85 ESE 3 6 30.10 1019 7 11 0.00 0.00
2:52 am 02:52 Cloudy 30 -1.1 26 -3.3 85 85 E 5 7 30.05 1018 7 11 0.00 0.00
3:52 am 03:52 Cloudy 31 -0.6 27 -2.8 85 85 ENE 5 7 30.04 1017 7 11 0.00 0.00
4:52 am 04:52 Cloudy 31 -0.6 27 -2.8 85 85 ESE 6 9 30.01 1016 7 11 0.00 0.00
5:52 am 05:52 Cloudy 31 -0.6 27 -2.8 85 85 ESE 10 17 29.99 1016 7 11 0.00 0.00
6:52 am 06:52 Cloudy 31 -0.6 28 -2.2 89 89 SSE 8 13 30.00 1016 7 11 0.00 0.00
7:52 am 07:52 Cloudy 32 0 28 -2.2 85 85 SE 7 11 29.99 1016 7 11 0.00 0.00
8:52 am 08:52 Cloudy 33 0.6 28 -2.2 82 82 SE 8 13 30.01 1016 7 11 0.00 0.00
9:52 am 09:52 Cloudy with Freezing Rain 32 0 30 -1.1 92 92 SE 14 22 29.99 1016 3 5 0.03 0.76
10:23 am 10:23 Cloudy with Light Freezing Rain 32 0 30 -1.1 92 92 SE 17 28 30.00 1016 4 6 0.03 0.76
10:52 am 10:52 Cloudy with Light Freezing Rain 32 0 30 -1.1 92 92 SE 16 26 29.97 1015 5 8 0.03 0.76
11:28 am 11:28 Cloudy 35 1.7 32 0 89 89 SSE 8 13 29.99 1015 7 11 0.00 0.00
11:52 am 11:52 Cloudy 35 1.7 32 0 89 89 SSE 9 15 29.97 1015 7 11 0.00 0.00
12:52 pm 12:52 Cloudy 35 1.7 32 0 89 89 S 7 11 29.96 1015 7 11 0.00 0.00
1:52 pm 13:52 Cloudy 36 2.2 33 0.6 89 89 SW 3 6 29.94 1014 7 11 0.00 0.00
2:03 pm 14:03 Cloudy 36 2.2 33 0.6 89 89 NNW 7 11 29.97 1015 7 11 0.00 0.00
2:09 pm 14:09 Cloudy 36 2.2 33 0.6 89 89 NNW 7 11 29.97 1015 7 11 0.00 0.00
2:52 pm 14:52 Cloudy with Light Rain 36 2.2 33 0.6 89 89 N 6 9 29.95 1014 7 11 0.00 0.00
3:35 pm 15:35 Cloudy with Light Snow 34 1.1 32 0 92 92 NNW 5 7 29.97 1015 2 3 0.01 0.25
3:52 pm 15:52 Cloudy with Light Snow 34 1.1 32 0 92 92 NNW 7 11 29.96 1014 2 2 0.02 0.51
4:07 pm 16:07 Cloudy with Light Snow 33 0.6 32 0 96 96 NNW 6 9 29.99 1016 1 1 0.01 0.25
4:52 pm 16:52 Cloudy with Light Snow 33 0.6 32 0 96 96 NW 10 17 29.98 1015 1 1 0.06 1.52
5:28 pm 17:28 Cloudy with Light Snow 33 0.6 31 -0.6 92 92 NNW 17 28 30.01 1016 1 2 0.03 0.76
5:38 pm 17:38 Cloudy with Light Snow 33 0.6 31 -0.6 92 92 NNW 16 26 30.01 1016 1 2 0.04 1.02
5:52 pm 17:52 Cloudy with Light Snow 33 0.6 31 -0.6 92 92 NW 15 24 30.00 1016 2 3 0.05 1.27
6:52 pm 18:52 Cloudy with Light Snow 33 0.6 31 -0.6 92 92 NW 14 22 30.02 1017 2 3 0.01 0.25
7:25 pm 19:25 Cloudy with Light Snow 33 0.6 31 -0.6 92 92 NNW 18 30 30.04 1017 2 3 0.02 0.51
7:52 pm 19:52 Windy with Snow Likely 30 -1.1 27 -2.8 88 88 NNW 24 39 30.03 1017 2 3 0.02 0.51
8:37 pm 20:37 Windy with Snow Likely 29 -1.7 26 -3.3 89 89 N 25 41 30.09 1019 2 2 0.00 0.00
8:52 pm 20:52 Windy with Snow Likely 28 -2.2 25 -3.9 88 88 NNW 28 44 30.07 1018 1 2 0.00 0.00
9:52 pm 21:52 Windy with Snow Likely 24 -4.4 21 -6.1 88 88 N 28 44 30.12 1020 1 2 0.01 0.25
10:52 pm 22:52 Windy with Snow Likely 22 -5.6 19 -7.2 89 89 N 26 43 30.18 1022 1 2 0.00 0.00
11:10 pm 23:10 Mostly Cloudy with Light Snow 22 -5.6 18 -7.8 85 85 N 26 43 30.24 1024 1 1 0.00 0.00
11:39 pm 23:39 Mostly Cloudy with Light Snow 21 -6.1 18 -7.8 88 88 N 28 44 30.26 1025 1 1 0.01 0.25
11:52 pm 23:52 Mostly Cloudy with Light Snow 21 -6.1 18 -7.8 88 88 N 25 41 30.22 1024 1 1 0.01 0.25

Powered by AerisWeather